North Bend, OR

10:21 PM PDT on August 30, 2016 (GMT -0700)
North Bend Municipal

Weather History for KOTH - July, 2014

Change the Weather History Date:

Monday, July 28, 2014

  Actual Average Record
Temperature  
Mean Temperature 58 °F 59 °F  
Max Temperature 63 °F 65 °F 74 °F (1926)
Min Temperature 52 °F 53 °F 43 °F (1924)
Degree Days  
Heating Degree Days 7 6  
Month to date heating degree days 127 179  
Since 1 June heating degree days 324 446  
Since 1 July heating degree days 127 179  
Cooling Degree Days 0 0  
Month to date cooling degree days 0 0  
Year to date cooling degree days 12 0  
Since 1 June cooling degree days 0 0  
Growing Degree Days 6 (Base 50)    
Moisture  
Dew Point 56 °F    
Average Humidity 96    
Maximum Humidity 100    
Minimum Humidity 84    
Precipitation  
Precipitation 0.00 in 0.01 in 0.27 in (1993)
Month to date precipitation 0.00 0.47  
Year to date precipitation 22.43 36.59  
Sea Level Pressure  
Sea Level Pressure 30.10 in    
Wind  
Wind Speed 11 mph (North)    
Max Wind Speed 23 mph    
Max Gust Speed 31 mph    
Visibility 5 miles    
Events      
T = Trace of Precipitation, MM = Missing Value Source: NWS Daily Summary

Daily Weather History Graph

Daily Weather History Graph

Search for Another Location

Airport or City:

Trip Planner

Search our weather history database for the weather conditions in past years. The results will help you decide how hot, cold, wet, or windy it might be!

Date:

Astronomy

Jul. 28, 2014 Rise Set
Actual Time 6:02 AM PDT 8:43 PM PDT
Civil Twilight 5:29 AM PDT 9:16 PM PDT
Nautical Twilight 4:48 AM PDT 9:57 PM PDT
Astronomical Twilight 4:00 AM PDT 10:45 PM PDT
Moon 7:54 AM PDT (7/28) 9:22 PM PDT (7/28)
Length of Visible Light 15h 46m
Length of Day
14h 41m
Waxing Crescent, 3% of the Moon is Illuminated
Jul 28
Waxing Crescent
Aug 3
First Quarter
Aug 10
Full
Aug 17
Last Quarter
Aug 25
New

Hourly Weather History & Observations

Time (PDT) Temp. Dew Point Humidity Pressure Visibility Wind Dir Wind Speed Gust Speed Precip Events Conditions
12:15 AM 57.2 °F 57.2 °F 100% 30.09 in 10.0 mi North 10.4 mph - N/A   Scattered Clouds
12:35 AM 57.2 °F 57.2 °F 100% 30.09 in 10.0 mi North 8.1 mph - N/A   Mostly Cloudy
12:55 AM 57.2 °F 55.4 °F 94% 30.09 in 9.0 mi North 9.2 mph - N/A   Overcast
1:15 AM 55.4 °F 55.4 °F 100% 30.09 in 8.0 mi North 6.9 mph - N/A   Mostly Cloudy
1:35 AM 55.4 °F 55.4 °F 100% 30.08 in 8.0 mi North 6.9 mph - N/A   Mostly Cloudy
1:55 AM 55.4 °F 55.4 °F 100% 30.08 in 5.0 mi North 8.1 mph - N/A   Overcast
2:15 AM 55.4 °F 55.4 °F 100% 30.08 in 6.0 mi North 8.1 mph - N/A   Overcast
2:35 AM 55.4 °F 55.4 °F 100% 30.08 in 4.0 mi NNW 5.8 mph - N/A   Overcast
2:55 AM 53.6 °F 53.6 °F 100% 30.08 in 1.8 mi NNW 3.5 mph - N/A   Overcast
3:15 AM 53.6 °F 53.6 °F 100% 30.07 in 1.2 mi Calm Calm - N/A   Overcast
3:35 AM 53.6 °F 53.6 °F 100% 30.07 in 0.5 mi Calm Calm - N/A   Overcast
3:55 AM 53.6 °F 53.6 °F 100% 30.07 in 0.5 mi NNW 3.5 mph - N/A   Overcast
4:15 AM 53.6 °F 53.6 °F 100% 30.08 in 0.5 mi NNW 4.6 mph - N/A   Overcast
4:35 AM 53.6 °F 53.6 °F 100% 30.08 in 0.5 mi NNW 4.6 mph - N/A   Overcast
4:55 AM 53.6 °F 53.6 °F 100% 30.08 in 0.5 mi NNW 3.5 mph - N/A   Overcast
5:15 AM 53.6 °F 53.6 °F 100% 30.08 in 0.5 mi NNW 4.6 mph - N/A   Overcast
5:35 AM 53.6 °F 53.6 °F 100% 30.08 in 0.5 mi NNW 4.6 mph - N/A   Overcast
5:55 AM 53.6 °F 53.6 °F 100% 30.08 in 0.2 mi NNW 3.5 mph - N/A   Overcast
6:15 AM 53.6 °F 53.6 °F 100% 30.09 in 0.2 mi NNW 4.6 mph - N/A   Overcast
6:35 AM 51.8 °F 51.8 °F 100% 30.09 in 0.2 mi North 6.9 mph - N/A   Overcast
6:55 AM 51.8 °F 51.8 °F 100% 30.09 in 0.2 mi NNW 6.9 mph - N/A   Overcast
7:15 AM 51.8 °F 51.8 °F 100% 30.09 in 0.2 mi North 3.5 mph - N/A   Overcast
7:35 AM 53.6 °F 53.6 °F 100% 30.10 in 0.2 mi NW 3.5 mph - N/A   Overcast
7:55 AM 53.6 °F 53.6 °F 100% 30.10 in 0.5 mi North 3.5 mph - N/A   Overcast
8:15 AM 53.6 °F 53.6 °F 100% 30.10 in 0.5 mi NW 3.5 mph - N/A   Overcast
8:35 AM 53.6 °F 53.6 °F 100% 30.10 in 0.5 mi NW 3.5 mph - N/A   Overcast
8:55 AM 53.6 °F 53.6 °F 100% 30.11 in 0.5 mi NW 3.5 mph - N/A   Overcast
9:15 AM 55.4 °F 55.4 °F 100% 30.11 in 1.5 mi NNW 4.6 mph - N/A   Overcast
9:35 AM 55.4 °F 55.4 °F 100% 30.11 in 1.2 mi North 5.8 mph - N/A   Overcast
9:55 AM 55.4 °F 55.4 °F 100% 30.10 in 10.0 mi NNW 4.6 mph - N/A   Overcast
10:15 AM 57.2 °F 57.2 °F 100% 30.10 in 10.0 mi NNW 3.5 mph - N/A   Partly Cloudy
10:35 AM 62.6 °F 57.2 °F 82% 30.10 in 10.0 mi NNW 9.2 mph - N/A   Partly Cloudy
10:55 AM 62.6 °F 57.2 °F 82% 30.09 in 10.0 mi NNW 11.5 mph - N/A   Partly Cloudy
11:15 AM 60.8 °F 55.4 °F 82% 30.09 in 10.0 mi North 18.4 mph 23.0 mph N/A   Clear
11:35 AM 60.8 °F 55.4 °F 82% 30.09 in 10.0 mi North 21.9 mph 26.5 mph N/A   Clear
11:55 AM 60.8 °F 55.4 °F 82% 30.09 in 10.0 mi North 20.7 mph - N/A   Clear
12:15 PM 60.8 °F 57.2 °F 88% 30.10 in 10.0 mi North 19.6 mph 24.2 mph N/A   Clear
12:35 PM 62.6 °F 57.2 °F 82% 30.10 in 10.0 mi North 20.7 mph 25.3 mph N/A   Clear
1:15 PM 62.6 °F 57.2 °F 82% 30.09 in 10.0 mi North 20.7 mph 27.6 mph N/A   Clear
1:35 PM 60.8 °F 57.2 °F 88% 30.10 in 10.0 mi North 20.7 mph 25.3 mph N/A   Clear
1:55 PM 60.8 °F 57.2 °F 88% 30.09 in 10.0 mi North 20.7 mph 28.8 mph N/A   Scattered Clouds
2:15 PM 62.6 °F 57.2 °F 82% 30.10 in 10.0 mi North 19.6 mph 27.6 mph N/A   Scattered Clouds
2:35 PM 60.8 °F 57.2 °F 88% 30.10 in 10.0 mi North 21.9 mph 29.9 mph N/A   Scattered Clouds
2:55 PM 62.6 °F 57.2 °F 82% 30.10 in 10.0 mi North 23.0 mph 28.8 mph N/A   Scattered Clouds
3:15 PM 62.6 °F 57.2 °F 82% 30.10 in 10.0 mi North 19.6 mph 27.6 mph N/A   Mostly Cloudy
3:35 PM 60.8 °F 57.2 °F 88% 30.10 in 10.0 mi North 21.9 mph 28.8 mph N/A   Mostly Cloudy
3:55 PM 60.8 °F 57.2 °F 88% 30.10 in 10.0 mi North 23.0 mph 31.1 mph N/A   Mostly Cloudy
4:15 PM 60.8 °F 59.0 °F 94% 30.09 in 10.0 mi North 23.0 mph 31.1 mph N/A   Mostly Cloudy
4:35 PM 60.8 °F 59.0 °F 94% 30.09 in 10.0 mi North 23.0 mph 31.1 mph N/A   Mostly Cloudy
4:55 PM 60.8 °F 59.0 °F 94% 30.09 in 10.0 mi North 18.4 mph 31.1 mph N/A   Mostly Cloudy
5:15 PM 60.8 °F 59.0 °F 94% 30.09 in 10.0 mi North 17.3 mph 27.6 mph N/A   Overcast
5:35 PM 60.8 °F 60.8 °F 100% 30.09 in 8.0 mi North 17.3 mph 26.5 mph N/A   Overcast
5:55 PM 60.8 °F 60.8 °F 100% 30.09 in 8.0 mi North 21.9 mph 31.1 mph N/A   Overcast
6:15 PM 59.0 °F 57.2 °F 94% 30.09 in 4.0 mi North 18.4 mph 27.6 mph N/A   Overcast
6:35 PM 59.0 °F 59.0 °F 100% 30.09 in 4.0 mi North 15.0 mph 23.0 mph N/A   Overcast
6:55 PM 59.0 °F 57.2 °F 94% 30.09 in 5.0 mi North 16.1 mph 27.6 mph N/A   Overcast
7:15 PM 57.2 °F 57.2 °F 100% 30.09 in 3.0 mi North 13.8 mph 24.2 mph N/A   Overcast
7:55 PM 57.2 °F 57.2 °F 100% 30.10 in 1.5 mi North 17.3 mph 20.7 mph N/A   Overcast
8:15 PM 57.2 °F 57.2 °F 100% 30.11 in 1.2 mi North 16.1 mph 23.0 mph N/A   Overcast
8:35 PM 57.2 °F 57.2 °F 100% 30.11 in 1.2 mi North 12.7 mph 20.7 mph N/A   Overcast
8:55 PM 57.2 °F 57.2 °F 100% 30.12 in 1.2 mi North 12.7 mph - N/A   Overcast
9:15 PM 57.2 °F 57.2 °F 100% 30.12 in 2.0 mi North 10.4 mph - N/A   Overcast
9:35 PM 55.4 °F 55.4 °F 100% 30.13 in 2.0 mi North 11.5 mph 21.9 mph N/A   Overcast
9:55 PM 55.4 °F 55.4 °F 100% 30.13 in 3.0 mi North 15.0 mph 19.6 mph N/A   Overcast
10:15 PM 55.4 °F 55.4 °F 100% 30.13 in 3.0 mi North 13.8 mph 20.7 mph N/A   Overcast
10:35 PM 55.4 °F 55.4 °F 100% 30.13 in 9.0 mi North 10.4 mph 19.6 mph N/A   Overcast
10:55 PM 55.4 °F 55.4 °F 100% 30.14 in 6.0 mi North 11.5 mph - N/A   Overcast
11:15 PM 55.4 °F 55.4 °F 100% 30.14 in 9.0 mi North 16.1 mph 21.9 mph N/A   Overcast
11:35 PM 55.4 °F 55.4 °F 100% 30.14 in 10.0 mi North 16.1 mph - N/A   Overcast
11:55 PM 55.4 °F 55.4 °F 100% 30.14 in 4.0 mi North 9.2 mph - N/A   Overcast